GW0720 Weather Reports


Display with metric or nautical units.
time (UTC)temp
F
wind
direction
speed
MPH
gust
MPH
rain 1hr
in
rain 24hr
in
rain mn
in
humidity
%
barometer
mb
20260904211557 90 0 0.0 0.0 0.00 0.00 0.00 72 1013.3
20260904210100 90 0 0.0 0.0 0.00 0.00 0.00 70 1013.3
20260904204557 90 0 0.0 1.0 0.00 0.00 0.00 69 1013.2
20260904203057 90 0 0.0 0.0 0.00 0.00 0.00 73 1013.0
20260904201555 90 0 0.0 1.0 0.00 0.00 0.00 70 1012.8
20260904200120 91 0 0.0 1.0 0.00 0.00 0.00 66 1013.0
20260904194610 93 0 0.0 2.0 0.00 0.00 0.00 62 1013.4
20260904193105 94 0 0.0 3.0 0.00 0.00 0.00 61 1013.4
20260904191600 96 0 0.0 3.0 0.00 0.00 0.00 57 1013.7
20260904190106 97 0 0.0 3.0 0.00 0.00 0.00 54 1013.9
20260904184613 96 262 0.0 8.0 0.00 0.00 0.00 55 1014.3
20260904183104 96 0 1.0 4.0 0.00 0.00 0.00 54 1014.5
20260904181613 97 233 0.0 5.0 0.00 0.00 0.00 54 1014.7
20260904180144 97 0 0.0 4.0 0.00 0.00 0.00 55 1014.9
20260904174603 96 0 0.0 2.0 0.00 0.00 0.00 58 1015.3
20260904173054 96 0 1.0 5.0 0.00 0.00 0.00 56 1015.4
20260904171620 94 250 1.0 5.0 0.00 0.00 0.00 58 1015.4
20260904170058 94 219 1.0 5.0 0.00 0.00 0.00 60 1015.3
20260904164614 93 264 0.0 4.0 0.00 0.00 0.00 59 1015.4
20260904163055 93 244 0.0 3.0 0.00 0.00 0.00 61 1015.7
20260904161605 93 0 0.0 5.0 0.00 0.00 0.00 60 1015.7
20260904160100 94 233 0.0 6.0 0.00 0.00 0.00 62 1015.8
20260904154600 94 214 0.0 3.0 0.00 0.00 0.00 62 1015.8
20260904153109 93 0 0.0 4.0 0.00 0.00 0.00 63 1015.8
20260904151600 93 155 0.0 4.0 0.00 0.00 0.00 64 1015.7
20260904150106 92 0 0.0 4.0 0.00 0.00 0.00 66 1015.6
20260904144556 91 0 0.0 3.0 0.00 0.00 0.00 68 1015.7
20260904143100 90 345 1.0 3.0 0.00 0.00 0.00 71 1015.6
20260904141558 88 318 0.0 2.0 0.00 0.00 0.00 74 1015.6
20260904140057 86 0 0.0 4.0 0.00 0.00 0.00 78 1015.6
20260904134559 84 0 0.0 3.0 0.00 0.00 0.00 79 1015.4
20260904133100 83 0 0.0 2.0 0.00 0.00 0.00 82 1015.1
20260904131607 81 0 0.0 2.0 0.00 0.00 0.00 84 1015.1
20260904130100 80 298 0.0 1.0 0.00 0.00 0.00 86 1015.3
20260904124604 79 0 0.0 3.0 0.00 0.00 0.00 88 1015.1
20260904123059 77 0 0.0 3.0 0.00 0.00 0.00 91 1015.3
20260904121558 75 0 0.0 1.0 0.00 0.00 0.00 95 1015.4
20260904120101 75 0 0.0 0.0 0.00 0.00 0.00 96 1015.3
20260904114606 74 0 0.0 0.0 0.00 0.00 0.00 95 1015.2
20260904113106 74 0 0.0 0.0 0.00 0.00 0.00 94 1015.2
20260904111603 74 0 0.0 0.0 0.00 0.00 0.00 94 1015.2
20260904110104 73 0 0.0 0.0 0.00 0.00 0.00 94 1015.2
20260904104613 74 0 0.0 0.0 0.00 0.00 0.00 93 1015.1
20260904103100 74 0 0.0 0.0 0.00 0.00 0.00 93 1015.1
20260904101557 74 0 0.0 0.0 0.00 0.00 0.00 93 1015.1
20260904100116 74 0 0.0 0.0 0.00 0.00 0.00 93 1015.1
20260904094615 74 0 0.0 0.0 0.00 0.00 0.00 92 1015.0
20260904093106 75 0 0.0 0.0 0.00 0.00 0.00 92 1015.2
20260904091557 75 0 0.0 0.0 0.00 0.00 0.00 92 1015.4
20260904090053 75 0 0.0 0.0 0.00 0.00 0.00 91 1015.4
20260904084601 75 0 0.0 0.0 0.00 0.00 0.00 91 1015.2
20260904083103 76 0 0.0 0.0 0.00 0.00 0.00 90 1015.0
20260904081601 76 0 0.0 0.0 0.00 0.00 0.00 90 1014.9
20260904080135 77 0 0.0 0.0 0.00 0.00 0.00 89 1014.9
20260904074607 77 0 0.0 0.0 0.00 0.00 0.00 88 1014.8
20260904073104 78 0 0.0 0.0 0.00 0.00 0.00 87 1014.8
20260904071559 78 0 0.0 0.0 0.00 0.00 0.00 85 1014.6
20260904070100 79 0 0.0 0.0 0.00 0.00 0.00 85 1014.9
20260904064604 80 0 0.0 2.0 0.00 0.00 0.00 84 1015.0
20260904063052 81 63 0.0 2.0 0.00 0.00 0.00 84 1014.6
20260904061600 82 0 0.0 2.0 0.00 0.00 0.00 82 1015.4
20260904060120 81 105 2.0 8.0 0.00 0.00 0.00 82 1015.6
20260904054603 81 0 0.0 1.0 0.00 0.00 0.00 83 1014.9
20260904053148 80 15 0.0 3.0 0.00 0.00 0.00 84 1014.7
20260904051614 79 336 0.0 3.0 0.00 0.00 0.00 89 1014.9
20260904050108 78 0 0.0 0.0 0.00 0.00 0.00 92 1015.2
20260904044603 78 0 0.0 0.0 0.00 0.00 0.00 93 1015.2
20260904043055 78 0 0.0 0.0 0.00 0.00 0.00 93 1015.3
20260904041605 78 0 0.0 0.0 0.00 0.00 0.00 93 1015.4
20260904034559 78 0 0.0 0.0 0.00 0.00 0.00 93 1015.5
20260904033106 79 0 0.0 1.0 0.00 0.00 0.00 93 1015.9
20260904031556 79 0 0.0 0.0 0.00 0.00 0.00 93 1015.8
20260904030100 79 0 0.0 0.0 0.00 0.00 0.00 93 1015.8
20260904024622 79 0 0.0 0.0 0.00 0.00 0.00 93 1015.8
20260904023106 79 0 0.0 0.0 0.00 0.00 0.00 92 1015.9
20260904021559 79 0 0.0 0.0 0.00 0.00 0.00 91 1015.5
20260904010106 80 0 0.0 0.0 0.00 0.00 0.00 89 1016.3
20260904004554 81 0 0.0 0.0 0.00 0.00 0.00 88 1016.3
20260904003059 81 0 0.0 0.0 0.00 0.00 0.00 87 1016.3
20260904001606 82 0 0.0 0.0 0.00 0.00 0.00 86 1016.0
20260904000115 82 0 0.0 0.0 0.00 0.00 0.00 85 1015.7
20260903234554 83 0 0.0 0.0 0.00 0.00 0.00 84 1015.5
20260903233121 84 0 0.0 0.0 0.00 0.00 0.00 84 1015.3
20260903231558 85 0 0.0 0.0 0.00 0.00 0.00 82 1015.4
20260903230113 86 0 0.0 0.0 0.00 0.00 0.00 82 1015.3
20260903224626 86 0 0.0 0.0 0.00 0.00 0.00 81 1015.4
20260903223133 87 0 0.0 0.0 0.00 0.00 0.00 79 1015.3
20260903221603 88 0 0.0 0.0 0.00 0.00 0.00 79 1015.5
20260903220105 89 0 0.0 0.0 0.00 0.00 0.00 76 1015.6
20260903214604 90 0 0.0 0.0 0.00 0.00 0.00 71 1015.6
20260903213109 91 0 0.0 1.0 0.00 0.00 0.00 69 1015.5